sat.trackr.live / text

‹ back to catalog

ONEWEB-0298

NORAD 49087 · 2021-075N

PAYLOAD ACTIVE UNKNOWN

§ Identity

Operator
Country
UK
Launch date
2021-08-21
Launch site
TYMSC
Launch vehicle
Mass (kg)
RCS (m²)

Purposes: comms

External: N2YO · Heavens-Above · Gunter

§ Orbital elements

Epoch: 2026-09-09T18:50:24.936576Z

Period
109.29 min
Inclination
87.9203°
Eccentricity
0.0001962
Mean motion
13.17648221 rev/d
Perigee alt
1,192.2 km
Apogee alt
1,195.2 km
Semi-major
7,571.9 km
B*
-5.6650e-5
RAAN
349.0647°
Arg perigee
103.4068°
Mean anomaly
256.7282°
Rev number
24,476

§ Raw data

ONEWEB-02981 49087U 21075N   26252.78501084 -.00000009  00000+0 -56650-4 0  99992 49087  87.9203 349.0647 0001962 103.4068 256.7282 13.17648221244762

JSON: /api/v1/satellites/49087 · /tle

For live sub-satellite position, see the globe view (requires WebGL).

§ Visibility from observer

Set your observer location to see the next 7 days of passes ≥ 10°. The values pass through the URL so the page stays shareable.

No JS? Fill the form by hand. The geolocation button needs JavaScript.